Погода в Аннаполисе

США     38°58′41″N   76°29′34″W
темп.,
°C
ветер,
м/с
пор.,
м/с
влажн.,
%
обл.,
%
осадки,
мм/ч
давл.,
гПа
погр.,
м
23 января, сб
сб2301:00−1сз610590 0.0 10171166
04:00−1сз586445 0.0 10191189
07:00−1ссз696183 0.1 10201220
10:00−1сз8114226 0.0 10241685
13:000сз7114016 0.0 10231627
16:00+1сз711393 0.0 10241625
19:00−1сз610480 0.0 10251151
22:00−2сз69540 0.0 10271043
24 января, вс
вс2401:00−2сз695548 0.0 1027904
04:00−3сз695489 0.0 1027819
07:00−3сз485452 0.0 1027715
10:00−2ссз46460 0.0 1027668
13:00+2сз243521 0.0 1024851
16:00+3зюз12361 0.0 1022760
19:00+1ююв114341 0.0 102278
22:00+1ююв225290 0.0 1022133
25 января, пн
пн2501:00+1вюв235998 0.0 1019142
04:00+1в345899 0.0 1018167
07:000всв3464100 0.0 1019152
10:00+2св345597 0.0 1020320
13:00+3всв235398 0.0 1018407
16:00+3в3564100 0.1 1018536
19:00+1в4788100 2.2 1018433
22:00+1всв4697100 4.4 1016298
26 января, вт
вт2601:000всв71095100 8.6 1015516
04:00+1в71095100 2.4 1012455
07:00+2в71196100 5.1 1012402
10:00+3всв4797100 1.5 1013319
13:00+5всв3496100 2.5 1011192
16:00+5всв5897100 0.3 1010215
19:00+4всв479795 0.4 1012187
22:00+4ссв1199100 0.6 101529
27 января, ср
ср2701:00+4ссз119892 0.4 101425
04:00+4ссз359755 0.0 1016125
07:00+4ссв469896 0.0 1020284
10:00+5ссв248747 0.0 1020354
13:00+7зсз137258 0.0 1020684
16:00+7св127036 0.0 1019505
19:00+5в227754 0.0 101959
22:00+5всв4688100 0.0 1018174